COSMOS 1275 DEB, 12733

Orbit data source: Space-Track

COSMOS 1275 DEB, 12733 is space debris in LEO originally from a launch on Thu, 04 Jun 1981 UTC launched from the Plesetsk Missile And Space Complex (PKMTR). Debris objects in space refer to the collection of defunct objects orbiting the Earth. Examples of debris include non-operational satellites, rocket bodies, and fragments generated from explosions, collisions, or faulty payload assembly.

Loading next visibility...
Identifier
12733, 1981-053CA
Orbit
LEO
Country
Flag of CISCIS
Related business
Manufacturer
Unknown
Mission
Spacecraft
Bus & Motor
Unknown
Mass
Unknown
Launch date (UTC)
1981-06-04 (45 years ago)
Launch vehicle
Unknown
Launch site
Plesetsk Missile And Space Complex (PKMTR)
Object type
Payload
Rocket body
Debris
Shape & HBR
Unknown shape, 0.1 m
Radar Cross Section
Small (<0.1 m²)

Expand to show TLE details & history
Last TLE update: 2 days ago

TLE from 2 days ago
0 COSMOS 1275 DEB
1 12733U 81053CA  26171.29634834  .00002683  00000-0  85183-3 0  9996
2 12733  82.8538 263.1972 0016475 246.0131 113.9336 14.39631326296935
Epoch: 2026-06-20T07:06Z
TLE epoch observation values (Epoch: 2026-06-20T07:06:44.496Z)
Latitude
-0.00006°
Longitude
-112.00121°
Altitude
767.492 km
Speed
7.468 km/s
True Right ascension
17h 32m 47s
True Declination
0° 00' 00"
Sunlit
Object was in full shadow at epoch
Visualization orbit readout
Latitude
Unknown
Longitude
Unknown
Altitude
Unknown
Speed
Unknown
Apparent Right ascension
Unknown
Apparent Declination
Unknown
Sunlit
N/A
Visualization observer readout
Local Sidereal Time
23:27:25
Azimuth
Unknown
Elevation
Unknown
Doppler factor
Unknown
Orbital elements
Apogee altitude
768.535 km
Perigee altitude
745.025 km
Semi-major axis
7,134.917 km
Eccentricity
0.00165
Inclination
82.8538°
RAAN
263.1972°
Arg. of periapsis
246.0131°
True anomaly
114.10601°
Mean anomaly
113.9336°
Eccentric anomaly
114.01982°
Mean motion
3.6013 °/min
Orbital period
99.96 mins
BSTAR
0.00085183
Loading maneuver chart data...
Computing Atmospheric mass density...

Documentation

Showing up to 5 results
|